DLH0891 EVRA-EDDF

Flight info

Callsign DLH0891
Flight time N/A
Altitude 38000
Route VALED M869 LEP M864 ADAXA DCT NINTA DCT DIPEB DCT GOSOT DCT BANUB DCT POVEL DCT RIMET/N0439F350 T157 KOKEB/N0382F230 T157 KERAX KERAX5A
Aircraft A319/M-SDE2E3FGIJ1LORWXYZ/HB1

Departure

Time 2026-05-06 16:17
Airport Riga International Airport (EVRA)

Arrival

Time N/A
Airport Frankfurt Main Airport (EDDF)
Time Latitude Longitude Altitude Speed Heading
2026-05-06 15:40 56.92192 23.97743 37 ft 0 kts
2026-05-06 16:06 56.92185 23.97742 35 ft 4 kts
2026-05-06 16:06 56.92158 23.97737 37 ft 4 kts
2026-05-06 16:06 56.92132 23.97732 37 ft 3 kts
2026-05-06 16:06 56.92110 23.97731 37 ft 4 kts 355°
2026-05-06 16:07 56.92095 23.97732 37 ft 0 kts
2026-05-06 16:09 56.92101 23.97733 37 ft 2 kts
2026-05-06 16:10 56.92122 23.97733 37 ft 4 kts 355°
2026-05-06 16:10 56.92133 23.97694 37 ft 4 kts 276°
2026-05-06 16:10 56.92137 23.97629 34 ft 6 kts 276°
2026-05-06 16:10 56.92140 23.97564 37 ft 0 kts 276°
2026-05-06 16:11 56.92141 23.97547 37 ft 2 kts 270°
2026-05-06 16:11 56.92141 23.97523 35 ft 3 kts 270°
2026-05-06 16:11 56.92136 23.97471 37 ft 5 kts 240°
2026-05-06 16:11 56.92092 23.97455 37 ft 8 kts 185°
2026-05-06 16:12 56.92047 23.97448 37 ft 0 kts 185°
2026-05-06 16:12 56.92037 23.97446 37 ft 3 kts 185°
2026-05-06 16:12 56.91979 23.97437 37 ft 14 kts 185°
2026-05-06 16:12 56.91895 23.97430 37 ft 10 kts 182°
2026-05-06 16:13 56.91819 23.97420 37 ft 12 kts 185°
2026-05-06 16:13 56.91732 23.97405 38 ft 13 kts 185°
2026-05-06 16:13 56.91635 23.97389 36 ft 15 kts 185°
2026-05-06 16:13 56.91529 23.97370 38 ft 16 kts 185°
2026-05-06 16:14 56.91421 23.97352 36 ft 16 kts 185°
2026-05-06 16:14 56.91328 23.97279 36 ft 13 kts 229°
2026-05-06 16:14 56.91272 23.97144 36 ft 14 kts 237°
2026-05-06 16:14 56.91252 23.96987 39 ft 10 kts 272°
2026-05-06 16:15 56.91290 23.96935 40 ft 9 kts
2026-05-06 16:15 56.91368 23.96951 40 ft 1 kts
2026-05-06 16:15 56.91376 23.96953 40 ft 2 kts
2026-05-06 16:15 56.91390 23.96955 40 ft 0 kts
2026-05-06 16:16 56.91406 23.96958 39 ft 11 kts
2026-05-06 16:16 56.91815 23.97025 37 ft 107 kts
2026-05-06 16:16 56.92764 23.97182 320 ft 147 kts
2026-05-06 16:17 56.93776 23.97360 1120 ft 146 kts
2026-05-06 16:17 56.94788 23.97550 1870 ft 146 kts
2026-05-06 16:17 56.95787 23.97744 2594 ft 146 kts
2026-05-06 16:17 56.96806 23.97622 3182 ft 164 kts 339°
2026-05-06 16:18 56.97593 23.95854 3526 ft 203 kts 290°
2026-05-06 16:18 56.97523 23.93103 3832 ft 236 kts 252°
2026-05-06 16:18 56.96841 23.90242 4500 ft 252 kts 241°
2026-05-06 16:18 56.95950 23.87442 5414 ft 257 kts 235°
2026-05-06 16:19 56.94972 23.84669 6394 ft 262 kts 235°
2026-05-06 16:19 56.93952 23.81927 7414 ft 264 kts 227°
2026-05-06 16:19 56.92896 23.79050 8162 ft 280 kts 241°
2026-05-06 16:19 56.92350 23.75581 9120 ft 288 kts 261°
2026-05-06 16:20 56.92460 23.71895 10152 ft 294 kts 278°
2026-05-06 16:20 56.92836 23.68093 10683 ft 312 kts 270°
2026-05-06 16:20 56.92633 23.64113 11453 ft 315 kts 254°
2026-05-06 16:20 56.91885 23.60350 12382 ft 315 kts 242°
2026-05-06 16:21 56.90855 23.56818 13347 ft 315 kts 241°
2026-05-06 16:21 56.89831 23.53268 14252 ft 316 kts 241°
2026-05-06 16:21 56.88812 23.49700 15092 ft 317 kts 240°
2026-05-06 16:21 56.87722 23.46249 15884 ft 318 kts 234°
2026-05-06 16:22 56.86445 23.42930 16676 ft 320 kts 233°
2026-05-06 16:22 56.85150 23.39594 17442 ft 323 kts 233°
2026-05-06 16:22 56.83843 23.36242 18198 ft 325 kts 232°
2026-05-06 16:22 56.82525 23.32873 18921 ft 327 kts 232°
2026-05-06 16:23 56.81190 23.29468 19619 ft 330 kts 232°
2026-05-06 16:23 56.79848 23.26049 20286 ft 333 kts 233°
2026-05-06 16:23 56.78692 23.22334 20916 ft 340 kts 244°
2026-05-06 16:23 56.77983 23.18176 21531 ft 348 kts 255°
2026-05-06 16:24 56.77623 23.13775 22151 ft 353 kts 257°
2026-05-06 16:24 56.77272 23.09328 22763 ft 356 kts 257°
2026-05-06 16:24 56.76912 23.04845 23348 ft 359 kts 257°
2026-05-06 16:24 56.76543 23.00331 23915 ft 361 kts 257°
2026-05-06 16:25 56.76165 22.95780 24456 ft 364 kts 257°
2026-05-06 16:25 56.75781 22.91202 24976 ft 367 kts 257°
2026-05-06 16:25 56.75395 22.86583 25497 ft 370 kts 257°
2026-05-06 16:25 56.75007 22.81928 25984 ft 373 kts 257°
2026-05-06 16:26 56.74615 22.77232 26460 ft 376 kts 257°
2026-05-06 16:26 56.74222 22.72576 26917 ft 378 kts 257°
2026-05-06 16:26 56.73818 22.67829 27367 ft 381 kts 257°
2026-05-06 16:26 56.73410 22.63043 27802 ft 384 kts 257°
2026-05-06 16:27 56.72997 22.58219 28246 ft 386 kts 257°
2026-05-06 16:27 56.72579 22.53365 28684 ft 389 kts 257°
2026-05-06 16:27 56.72159 22.48477 29089 ft 392 kts 257°
2026-05-06 16:27 56.71600 22.43619 29470 ft 393 kts 252°
2026-05-06 16:28 56.70905 22.38785 29875 ft 395 kts 252°
2026-05-06 16:28 56.70199 22.33924 30257 ft 398 kts 252°
2026-05-06 16:28 56.69489 22.29035 30626 ft 401 kts 252°
2026-05-06 16:28 56.68771 22.24110 31005 ft 403 kts 252°
2026-05-06 16:29 56.68049 22.19175 31368 ft 405 kts 252°
2026-05-06 16:29 56.67322 22.14212 31714 ft 407 kts 252°
2026-05-06 16:29 56.66589 22.09239 32150 ft 406 kts 251°
2026-05-06 16:29 56.65860 22.04287 32669 ft 404 kts 251°
2026-05-06 16:30 56.65143 21.99432 33163 ft 402 kts 251°
2026-05-06 16:30 56.64655 21.96132 33491 ft 400 kts 251°
2026-05-06 16:30 56.63692 21.89678 34079 ft 399 kts 250°
2026-05-06 16:30 56.62962 21.84810 34533 ft 398 kts 250°
2026-05-06 16:31 56.62234 21.79967 34965 ft 397 kts 251°
2026-05-06 16:31 56.61505 21.75126 35343 ft 397 kts 251°
2026-05-06 16:31 56.60776 21.70288 35698 ft 397 kts 251°
2026-05-06 16:31 56.60046 21.65448 36030 ft 397 kts 251°
2026-05-06 16:32 56.59314 21.60617 36346 ft 397 kts 251°
2026-05-06 16:32 56.58583 21.55776 36633 ft 398 kts 251°
2026-05-06 16:32 56.57849 21.50937 36968 ft 397 kts 251°
2026-05-06 16:32 56.57115 21.46130 37390 ft 394 kts 251°
2026-05-06 16:33 56.56380 21.41365 37775 ft 391 kts 251°
2026-05-06 16:33 56.55648 21.36656 37922 ft 392 kts 251°
2026-05-06 16:34 56.53453 21.22435 37956 ft 390 kts 251°
2026-05-06 16:34 56.51984 21.12981 37946 ft 390 kts 251°
2026-05-06 16:35 56.50840 21.03347 37944 ft 393 kts 257°
2026-05-06 16:35 56.49998 20.93592 37936 ft 393 kts 257°
2026-05-06 16:36 56.49151 20.83807 37943 ft 394 kts 257°
2026-05-06 16:36 56.48295 20.74026 37946 ft 393 kts 257°
2026-05-06 16:37 56.47417 20.64230 37951 ft 393 kts 257°
2026-05-06 16:37 56.46535 20.54457 37953 ft 394 kts 257°
2026-05-06 16:38 56.45654 20.44685 37949 ft 394 kts 257°
2026-05-06 16:38 56.44771 20.34958 37945 ft 394 kts 257°
2026-05-06 16:39 56.43865 20.25173 37945 ft 395 kts 257°
2026-05-06 16:39 56.42938 20.15386 37939 ft 395 kts 257°
2026-05-06 16:40 56.41960 20.05609 37944 ft 395 kts 256°
2026-05-06 16:40 56.40965 19.95847 37941 ft 395 kts 256°
2026-05-06 16:41 56.39972 19.86082 37939 ft 395 kts 256°
2026-05-06 16:41 56.38979 19.76333 37941 ft 395 kts 256°
2026-05-06 16:42 56.37978 19.66594 37940 ft 395 kts 256°
2026-05-06 16:42 56.36961 19.56841 37938 ft 395 kts 256°
2026-05-06 16:43 56.35935 19.47076 37945 ft 396 kts 256°
2026-05-06 16:43 56.34907 19.37320 37942 ft 396 kts 256°
2026-05-06 16:44 56.33879 19.27631 37944 ft 396 kts 256°
2026-05-06 16:44 56.32833 19.17865 37945 ft 396 kts 256°
2026-05-06 16:45 56.31776 19.08116 37949 ft 396 kts 255°
2026-05-06 16:45 56.30710 18.98373 37941 ft 396 kts 255°
2026-05-06 16:46 56.29638 18.88613 37941 ft 397 kts 255°
2026-05-06 16:46 56.28568 18.78862 37939 ft 397 kts 255°
2026-05-06 16:47 56.27487 18.69111 37936 ft 398 kts 255°
2026-05-06 16:47 56.26402 18.59395 37930 ft 398 kts 255°
2026-05-06 16:48 56.25303 18.49619 37923 ft 399 kts 255°
2026-05-06 16:48 56.24185 18.39844 37923 ft 399 kts 255°
2026-05-06 16:49 56.23056 18.30058 37928 ft 400 kts 255°
2026-05-06 16:49 56.21774 18.20344 37935 ft 399 kts 252°
2026-05-06 16:50 56.20283 18.10737 37944 ft 399 kts 251°
2026-05-06 16:50 56.18733 18.01153 37943 ft 399 kts 247°
2026-05-06 16:51 56.16119 17.92498 37940 ft 394 kts 232°
2026-05-06 16:51 56.12838 17.84616 37952 ft 395 kts 232°
2026-05-06 16:52 56.09542 17.76720 37960 ft 396 kts 232°
2026-05-06 16:52 56.06241 17.68825 37964 ft 396 kts 232°
2026-05-06 16:53 56.02954 17.60974 37970 ft 396 kts 232°
2026-05-06 16:53 55.99648 17.53108 37978 ft 396 kts 232°
2026-05-06 16:54 55.96329 17.45267 37963 ft 395 kts 232°
2026-05-06 16:54 55.93007 17.37436 37972 ft 395 kts 232°
2026-05-06 16:55 55.89684 17.29610 37966 ft 396 kts 231°
2026-05-06 16:55 55.86352 17.21799 37969 ft 396 kts 231°
2026-05-06 16:56 55.83577 17.15305 37967 ft 396 kts 231°
2026-05-06 16:56 55.79682 17.06215 37956 ft 397 kts 232°
2026-05-06 16:57 55.76326 16.98418 37957 ft 397 kts 231°
2026-05-06 16:57 55.73510 16.91896 37958 ft 397 kts 231°
2026-05-06 16:58 55.70159 16.84169 37956 ft 398 kts 231°
2026-05-06 16:58 55.66780 16.76398 37954 ft 398 kts 231°
2026-05-06 16:59 55.63401 16.68632 37960 ft 398 kts 231°
2026-05-06 16:59 55.60014 16.60876 37949 ft 398 kts 231°
2026-05-06 17:00 55.56618 16.53125 37947 ft 399 kts 231°
2026-05-06 17:00 55.53214 16.45383 37940 ft 399 kts 231°
2026-05-06 17:01 55.49796 16.37632 37953 ft 399 kts 231°
2026-05-06 17:01 55.46381 16.29919 37950 ft 399 kts 231°
2026-05-06 17:02 55.42954 16.22209 37955 ft 399 kts 231°
2026-05-06 17:02 55.39547 16.14551 37957 ft 399 kts 231°
2026-05-06 17:03 55.36111 16.06877 37950 ft 399 kts 231°
2026-05-06 17:03 55.32663 15.99212 37959 ft 399 kts 231°
2026-05-06 17:04 55.29216 15.91543 37947 ft 400 kts 231°
2026-05-06 17:04 55.25763 15.83872 37953 ft 400 kts 231°
2026-05-06 17:05 55.22305 15.76239 37958 ft 400 kts 231°
2026-05-06 17:05 55.18859 15.68654 37962 ft 400 kts 231°
2026-05-06 17:06 55.15399 15.61042 37965 ft 400 kts 231°
2026-05-06 17:06 55.11927 15.53432 37951 ft 400 kts 231°
2026-05-06 17:07 55.08455 15.45853 37966 ft 399 kts 231°
2026-05-06 17:07 55.04974 15.38276 37954 ft 399 kts 231°
2026-05-06 17:08 55.01484 15.30719 37952 ft 400 kts 230°
2026-05-06 17:08 54.97999 15.23186 37954 ft 399 kts 231°
2026-05-06 17:09 54.94518 15.15670 37956 ft 399 kts 230°
2026-05-06 17:09 54.91034 15.08170 37957 ft 399 kts 230°
2026-05-06 17:10 54.87566 15.00725 37952 ft 399 kts 230°
2026-05-06 17:10 54.84068 14.93267 37954 ft 399 kts 230°
2026-05-06 17:11 54.80542 14.85845 37955 ft 398 kts 226°
2026-05-06 17:11 54.76554 14.79184 37956 ft 397 kts 224°
2026-05-06 17:12 54.72541 14.72589 37951 ft 397 kts 224°
2026-05-06 17:12 54.68527 14.66010 37950 ft 397 kts 224°
2026-05-06 17:13 54.64514 14.59457 37944 ft 397 kts 224°
2026-05-06 17:13 54.60499 14.52910 37938 ft 397 kts 224°
2026-05-06 17:14 54.56474 14.46360 37929 ft 397 kts 224°
2026-05-06 17:14 54.52476 14.39882 37916 ft 397 kts 224°
2026-05-06 17:15 54.48451 14.33379 37910 ft 397 kts 224°
2026-05-06 17:15 54.44419 14.26875 37905 ft 397 kts 224°
2026-05-06 17:16 54.40374 14.20395 37904 ft 398 kts 223°
2026-05-06 17:16 54.36319 14.13927 37901 ft 398 kts 223°
2026-05-06 17:17 54.32259 14.07459 37897 ft 398 kts 223°
2026-05-06 17:17 54.28184 14.00990 37900 ft 399 kts 223°
2026-05-06 17:18 54.24112 13.94555 37900 ft 399 kts 223°
2026-05-06 17:18 54.20055 13.88150 37904 ft 399 kts 223°
2026-05-06 17:19 54.15976 13.81721 37903 ft 399 kts 223°
2026-05-06 17:19 54.11897 13.75314 37899 ft 399 kts 223°
2026-05-06 17:20 54.07808 13.68918 37899 ft 399 kts 223°
2026-05-06 17:20 54.03713 13.62526 37900 ft 399 kts 223°
2026-05-06 17:21 53.99613 13.56145 37902 ft 399 kts 223°
2026-05-06 17:21 53.95509 13.49766 37904 ft 399 kts 223°
2026-05-06 17:22 53.91416 13.43416 37905 ft 398 kts 223°
2026-05-06 17:22 53.87323 13.37089 37901 ft 398 kts 223°
2026-05-06 17:23 53.83217 13.30778 37895 ft 398 kts 223°
2026-05-06 17:23 53.79120 13.24474 37897 ft 399 kts 223°
2026-05-06 17:24 53.75006 13.18169 37891 ft 399 kts 223°
2026-05-06 17:24 53.70901 13.11912 37893 ft 399 kts 222°
2026-05-06 17:25 53.66760 13.05620 37894 ft 399 kts 222°
2026-05-06 17:25 53.62628 12.99351 37892 ft 399 kts 222°
2026-05-06 17:26 53.58503 12.93096 37885 ft 399 kts 222°
2026-05-06 17:26 53.54369 12.86843 37890 ft 399 kts 222°
2026-05-06 17:27 53.50239 12.80618 37883 ft 399 kts 222°
2026-05-06 17:27 53.46125 12.74441 37887 ft 399 kts 222°
2026-05-06 17:28 53.41978 12.68237 37877 ft 400 kts 222°
2026-05-06 17:28 53.37812 12.62026 37875 ft 400 kts 222°
2026-05-06 17:29 53.33658 12.55821 37876 ft 400 kts 222°
2026-05-06 17:29 53.29493 12.49623 37879 ft 400 kts 222°
2026-05-06 17:30 53.25323 12.43448 37880 ft 400 kts 222°
2026-05-06 17:30 53.21173 12.37317 37867 ft 400 kts 222°
2026-05-06 17:31 53.17003 12.31169 37871 ft 400 kts 222°
2026-05-06 17:31 53.12832 12.25038 37868 ft 400 kts 221°
2026-05-06 17:32 53.08646 12.18902 37878 ft 400 kts 221°
2026-05-06 17:32 53.04465 12.12777 37880 ft 401 kts 221°
2026-05-06 17:33 53.00275 12.06665 37870 ft 401 kts 221°
2026-05-06 17:33 52.96076 12.00578 37866 ft 401 kts 221°
2026-05-06 17:34 52.91874 11.94502 37868 ft 401 kts 221°
2026-05-06 17:34 52.87676 11.88419 37859 ft 401 kts 221°
2026-05-06 17:35 52.83471 11.82334 37858 ft 402 kts 221°
2026-05-06 17:35 52.79249 11.76266 37858 ft 402 kts 221°
2026-05-06 17:36 52.68679 11.61121 37854 ft 403 kts 221°